Weather in Ierissos

Greece     40°23′55″N   23°52′38″E
temp.,
°C
wind,
m/s
gust,
m/s
humid.,
%
clouds,
%
prec.,
mm/h
press.,
hPa
HPBL,
m
18 april, sun
sun1800:00+13e54770 0.0 1013443
03:00+13ese777616 0.0 1013554
06:00+12e867774 0.0 1013609
09:00+12ese558082 0.0 1014555
12:00+12ene22766 0.0 1014324
15:00+13e2275100 0.0 1013215
18:00+13se2280100 0.0 1013221
21:00+13wsw2284100 0.0 1014113
19 april, mon
mon1900:00+13ne338521 0.0 1014176
03:00+13ne348795 0.2 1013325
06:00+13nne339089 0.3 1012283
09:00+13ne2291100 0.6 1012226
12:00+13ene228890 0.2 1012254
15:00+14ese55859 0.6 1010325
18:00+14se458193 1.9 1009185
21:00+14e338193 5.8 100849
20 april, tue
tue2000:00+13wnw45754 1.9 1009181
03:00+11nw611727 2.0 1010672
06:00+11w467144 0.0 1010360
09:00+11nw337122 0.0 1013393
12:00+12nne44675 0.0 1014313
15:00+12e547410 0.0 1015397
18:00+14e43685 0.0 1014284
21:00+13ene1169100 0.1 1016122
21 april, wed
wed2100:00+13ene227373 0.0 1017217
03:00+13ene12754 0.1 1017292
06:00+12n32813 0.2 1017310
09:00+12n22810 0.2 1019283
12:00+12ene22781 0.1 1019235
15:00+14sse23715 0.2 1019192
18:00+16s35604 0.0 1018277
21:00+14ssw45720 0.0 101990
22 april, thu
thu2200:00+14w22680 0.0 101940
03:00+14nw22695 0.0 102071
06:00+13n337232 0.0 1020157
09:00+13n22684 0.0 1021191
12:00+14ene22715 0.0 1022205
15:00+14e33766 0.0 1021224
18:00+16s23649 0.0 1020149
21:00+15ssw33705 0.0 102056